Location: Lewisville
(33.0462°N, 96.9942°W)
Time: 13:30:22
(UTC-06:00)

Envisat - Pass Details

Date: 29 December 2019
Orbit: 764 x 766 km, 98.1° (Epoch: 21 February)

Event Time Altitude Azimuth Distance (km) Brightness Sun altitude
Rises 06:57:37 0° 15° (NNE) 3,237 6.2 -7.0°
Reaches altitude 10° 06:59:56 10° 18° (NNE) 2,307 5.4 -6.6°
Maximum altitude 07:05:00 68° 101° (E) 821 3.5 -5.6°
Drops below altitude 10° 07:10:02 10° 185° (S) 2,292 5.8 -4.6°
Sets 07:12:20 0° 187° (S) 3,214 6.5 -4.2°
